Chongqing, China

11:37 AM CST on November 22, 2019 (GMT +0800)
Jiangbei

Weather History for ZUCK - September, 2019

Change the Weather History Date:

Wednesday, September 4, 2019

  Actual Average Record
Temperature  
Mean Temperature 82 °F -  
Max Temperature 92 °F - - ()
Min Temperature 71 °F - - ()
Cooling Degree Days 18    
Growing Degree Days 32 (Base 50)    
Moisture  
Dew Point 67 °F    
Average Humidity 61    
Maximum Humidity 94    
Minimum Humidity 28    
Precipitation  
Precipitation 0.00 in - - ()
Sea Level Pressure  
Sea Level Pressure 29.77 in    
Wind  
Wind Speed 7 mph ()    
Max Wind Speed 20 mph    
Max Gust Speed -    
Visibility 7.3 miles    
Events Rain    
T = Trace of Precipitation, MM = Missing Value Source: Averaged Metar Reports

Daily Weather History Graph

Daily Weather History Graph

Search for Another Location

Airport or City:

Astronomy

Sep. 04, 2019 Rise Set
Actual Time 6:31 AM CST 7:12 PM CST
Civil Twilight 6:07 AM CST 7:37 PM CST
Nautical Twilight 5:39 AM CST 8:05 PM CST
Astronomical Twilight 5:10 AM CST 8:34 PM CST
Moon 11:32 AM CST (9/4) 10:51 PM CST (9/4)
Length of Visible Light 13h 29m
Length of Day
12h 41m
Waxing Crescent, 29% of the Moon is Illuminated
Sep 4
Waxing Crescent
Sep 6
First Quarter
Sep 14
Full
Sep 22
Last Quarter
Sep 29
New

Hourly Weather History & Observations

Time (CST) Temp. Heat Index Dew Point Humidity Pressure Visibility Wind Dir Wind Speed Gust Speed Precip Events Conditions
12:00 AM 78.8 °F - 68.0 °F 69% 29.83 in - North 8.9 mph - N/A   Clear
1:00 AM 77.0 °F - 68.0 °F 74% 29.83 in - North 8.9 mph - N/A   Clear
2:00 AM 77.0 °F - 68.0 °F 74% 29.80 in - NNE 6.7 mph - N/A   Clear
3:00 AM 75.2 °F - 68.0 °F 78% 29.80 in - NNE 8.9 mph - N/A   Clear
4:00 AM 75.2 °F - 68.0 °F 78% 29.80 in - NNE 6.7 mph - N/A   Clear
5:00 AM 78 °F - 68 °F 65% 29.72 in 6 mi WNW 2.2 mph - -  
5:00 AM 73.4 °F - 66.2 °F 78% 29.80 in - North 4.5 mph - N/A   Clear
6:00 AM 75.2 °F - 66.2 °F 73% 29.80 in - NNE 4.5 mph - N/A   Clear
7:00 AM 75.2 °F - 66.2 °F 73% 29.80 in - NNE 8.9 mph - N/A   Clear
8:00 AM 81 °F - 68 °F 57% 29.74 in 6 mi ENE 2.2 mph - -   Mostly Cloudy
8:00 AM 78.8 °F - 66.2 °F 65% 29.83 in - NE 8.9 mph - N/A   Clear
9:00 AM 82.4 °F 84.6 °F 66.2 °F 58% 29.83 in - East 11.2 mph - N/A   Clear
10:00 AM 82.4 °F 83.9 °F 64.4 °F 54% 29.83 in - ESE 8.9 mph - N/A   Clear
11:00 AM 84 °F - 65 °F 43% 29.74 in 9 mi SE 2.2 mph - -   Mostly Cloudy
11:00 AM 84.2 °F 85.6 °F 64.4 °F 51% 29.83 in - East 6.7 mph - N/A   Clear
12:00 PM 84.2 °F 86.6 °F 66.2 °F 55% 29.80 in - East 4.5 mph - N/A   Clear
1:00 PM 87.8 °F 89.4 °F 64.4 °F 46% 29.77 in - SE 6.7 mph - N/A   Clear
2:00 PM 89 °F - 65 °F 35% 29.67 in 10 mi NNE 2.2 mph - -   Mostly Cloudy
2:00 PM 89.6 °F 91.1 °F 64.4 °F 43% 29.74 in - East 6.7 mph - N/A   Clear
3:00 PM 89.6 °F 91.1 °F 64.4 °F 43% 29.74 in - East 6.7 mph - N/A   Clear
4:00 PM 89.6 °F 92.2 °F 66.2 °F 46% 29.71 in - ENE 8.9 mph - N/A   Clear
5:00 PM 92 °F - 63 °F 28% 29.63 in 12 mi NE 2.2 mph - -   Mostly Cloudy
5:00 PM 89.6 °F 92.2 °F 66.2 °F 46% 29.71 in - ENE 11.2 mph - N/A   Clear
6:00 PM 84.2 °F 88.4 °F 69.8 °F 62% 29.74 in - NNE 17.9 mph - N/A   Clear
7:00 PM 80.6 °F 83.2 °F 68.0 °F 65% 29.74 in - NNE 17.9 mph - N/A   Clear
8:00 PM 83 °F - 67 °F 49% 29.68 in 7 mi NE 6.7 mph - -   Mostly Cloudy
8:00 PM 78.8 °F - 68.0 °F 69% 29.77 in - NNE 15.7 mph - N/A   Clear
9:00 PM 77.0 °F - 68.0 °F 74% 29.77 in - North 17.9 mph - N/A   Clear
10:00 PM 73.4 °F - 69.8 °F 88% 29.80 in 5.6 mi NNE 20.1 mph - N/A Rain Rain
11:00 PM 79 °F - 67 °F 60% 29.73 in 7 mi NNE 4.5 mph - -  
11:00 PM 71.6 °F - 69.8 °F 94% 29.80 in 2.8 mi North 17.9 mph - N/A Rain Rain